EW6612 Weather Reports


time (UTC)temp
F
wind
direction
speed
knots
gust
knots
rain 1hr
in
rain 24hr
in
rain mn
in
humidity
%
barometer
mb
20190326043642 46 5 0.0 0.0 0.00 0.00 0.00 78 1015.5
20190326042622 44 5 0.0 0.0 0.00 0.00 0.00 82 1015.6
20190326041605 44 5 0.0 1.7 0.00 0.00 0.00 84 1015.6
20190326040644 43 5 0.0 1.7 0.00 0.00 0.00 84 1015.6
20190326035620 43 5 0.0 1.7 0.00 0.00 0.00 84 1015.6
20190326034603 43 5 0.0 1.7 0.00 0.00 0.00 84 1015.7
20190326033544 44 5 0.0 0.0 0.00 0.00 0.00 83 1015.7
20190326032525 44 5 0.0 0.0 0.00 0.00 0.00 81 1015.7
20190326031509 45 5 0.0 0.0 0.00 0.00 0.00 79 1015.8
20190326030551 46 5 0.0 0.0 0.00 0.00 0.00 77 1015.8
20190326025533 46 5 0.0 0.9 0.00 0.00 0.00 76 1015.9
20190326024515 47 5 0.9 3.5 0.00 0.00 0.00 74 1016.0
20190326023458 46 82 0.0 0.0 0.00 0.00 0.00 79 1016.0
20190326022409 45 82 0.0 0.0 0.00 0.00 0.00 81 1016.1
20190326021414 45 82 0.0 0.0 0.00 0.00 0.00 81 1016.2
20190326020453 45 82 0.0 0.0 0.00 0.00 0.00 80 1016.2
20190326015430 46 82 0.0 0.0 0.00 0.00 0.00 79 1016.3
20190326014407 46 82 0.0 0.0 0.00 0.00 0.00 79 1016.3
20190326013331 46 90 0.0 0.0 0.00 0.00 0.00 81 1016.3
20190326012328 46 90 0.0 1.7 0.00 0.00 0.00 81 1016.3
20190326011423 47 90 0.0 4.3 0.00 0.00 0.00 80 1016.4
20190326010314 47 273 0.0 0.0 0.00 0.00 0.00 79 1016.4
20190326005326 48 273 0.0 0.0 0.00 0.00 0.00 80 1016.3
20190326004301 47 273 0.0 0.0 0.00 0.00 0.00 81 1016.3
20190326003241 47 273 0.0 0.0 0.00 0.00 0.00 81 1016.5
20190326002319 48 273 0.0 0.0 0.00 0.00 0.00 81 1016.5
20190326001256 48 273 0.0 0.0 0.00 0.00 0.00 81 1016.5
20190326000237 48 273 0.0 0.0 0.00 0.00 0.00 80 1016.6
20190325235216 48 273 0.0 0.0 0.00 0.00 0.00 80 1016.6
20190325234257 49 273 0.0 0.0 0.00 0.00 0.00 79 1016.7
20190325233242 49 273 0.0 0.0 0.00 0.00 0.00 77 1016.9
20190325232207 50 273 0.0 0.0 0.00 0.00 0.00 76 1016.9
20190325231148 50 273 0.0 0.0 0.00 0.00 0.00 76 1016.7
20190325230131 50 273 0.0 0.0 0.00 0.00 0.00 75 1016.7
20190325225209 51 273 0.0 0.0 0.00 0.00 0.00 73 1016.7
20190325224150 51 273 0.0 0.0 0.00 0.00 0.00 73 1016.9
20190325223129 52 273 0.0 0.0 0.00 0.00 0.00 71 1016.9
20190325222109 53 273 0.0 0.0 0.00 0.00 0.00 71 1016.9
20190325221038 53 273 0.0 0.0 0.00 0.00 0.00 69 1016.7
20190325220126 54 273 0.0 0.0 0.00 0.00 0.00 68 1016.7
20190325215036 54 273 0.0 0.0 0.00 0.00 0.00 68 1016.7
20190325214027 55 273 0.0 0.0 0.00 0.00 0.00 66 1016.6
20190325213025 55 273 0.0 0.0 0.00 0.00 0.00 67 1016.6
20190325212007 56 305 0.0 0.0 0.00 0.00 0.00 64 1016.5
20190325211005 56 306 0.0 0.0 0.00 0.00 0.00 65 1016.5
20190325210017 57 307 0.0 0.0 0.00 0.00 0.00 66 1016.5
20190325205057 57 307 0.0 0.0 0.00 0.00 0.00 66 1016.4
20190325204030 58 328 0.0 1.7 0.00 0.00 0.00 65 1016.4
20190325203009 59 328 0.9 1.7 0.00 0.00 0.00 63 1016.4
20190325201953 61 328 0.0 1.7 0.00 0.00 0.00 59 1016.3
20190325201036 63 328 0.9 2.6 0.00 0.00 0.00 56 1016.2
20190325200013 65 328 2.6 5.2 0.00 0.00 0.00 52 1016.2
20190325194929 65 328 2.6 4.3 0.00 0.00 0.00 51 1016.2
20190325193945 66 333 2.6 4.3 0.00 0.00 0.00 49 1016.2
20190325193021 67 341 4.3 8.7 0.00 0.00 0.00 47 1016.2
20190325191923 68 325 3.5 7.0 0.00 0.00 0.00 46 1016.1
20190325190924 69 327 3.5 7.0 0.00 0.00 0.00 44 1016.1
20190325185936 69 348 4.3 7.8 0.00 0.00 0.00 44 1016.0
20190325184922 70 331 6.1 11.3 0.00 0.00 0.00 43 1015.9
20190325183920 71 302 5.2 10.4 0.00 0.00 0.00 43 1015.9
20190325182918 71 355 5.2 10.4 0.00 0.00 0.00 42 1015.9
20190325181923 0 346 6.1 9.6 0.00 0.00 0.00 1015.9
20190325180915 0 355 6.1 9.6 0.00 0.00 0.00 1015.8
20190325175914 0 316 6.1 12.2 0.00 0.00 0.00 1015.8
20190325174930 74 331 7.0 13.0 0.00 0.00 0.00 37 1015.8
20190325173915 74 344 5.2 12.2 0.00 0.00 0.00 37 1015.8
20190325172910 75 346 7.8 13.0 0.00 0.00 0.00 36 1015.8
20190325171910 75 329 7.8 13.0 0.00 0.00 0.00 35 1015.7
20190325170910 76 323 7.8 13.9 0.00 0.00 0.00 35 1015.7
20190325165909 76 310 8.7 13.9 0.00 0.00 0.00 35 1015.8
20190325164911 77 327 7.8 17.4 0.00 0.00 0.00 34 1015.8
20190325163909 78 322 8.7 16.5 0.00 0.00 0.00 32 1015.7
20190325162958 79 349 7.0 13.0 0.00 0.00 0.00 32 1015.7
20190325161907 79 350 7.8 12.2 0.00 0.00 0.00 30 1015.8
20190325160905 79 0 7.0 13.9 0.00 0.00 0.00 31 1015.9
20190325160001 79 355 6.1 12.2 0.00 0.00 0.00 31 1016.0
20190325154944 79 20 7.8 13.9 0.00 0.00 0.00 31 1016.0
20190325153903 80 25 6.1 11.3 0.00 0.00 0.00 32 1016.2
20190325152902 78 36 5.2 10.4 0.00 0.00 0.00 32 1016.3
20190325151948 79 29 7.0 12.2 0.00 0.00 0.00 33 1016.5
20190325150859 80 10 5.2 12.2 0.00 0.00 0.00 31 1016.6
20190325145859 80 35 6.1 14.8 0.00 0.00 0.00 28 1016.7
20190325144951 79 5 6.1 12.2 0.00 0.00 0.00 29 1016.9
20190325143933 79 344 7.0 13.0 0.00 0.00 0.00 27 1017.0
20190325142857 79 355 4.3 9.6 0.00 0.00 0.00 32 1017.1
20190325141957 79 74 3.5 13.0 0.00 0.00 0.00 34 1017.3
20190325140936 78 40 3.5 9.6 0.00 0.00 0.00 31 1017.6
20190325135920 78 38 5.2 11.3 0.00 0.00 0.00 31 1017.7
20190325134852 79 28 5.2 10.4 0.00 0.00 0.00 34 1018.0
20190325133945 79 31 7.0 13.0 0.00 0.00 0.00 29 1018.0
20190325132928 79 51 4.3 11.3 0.00 0.00 0.00 29 1018.2
20190325131904 79 44 4.3 8.7 0.00 0.00 0.00 31 1018.5
20190325130946 79 59 7.0 12.2 0.00 0.00 0.00 30 1018.7
20190325125930 78 65 6.1 13.0 0.00 0.00 0.00 31 1018.8
20190325124909 78 76 7.0 12.2 0.00 0.00 0.00 30 1019.0
20190325123856 77 105 7.0 12.2 0.00 0.00 0.00 33 1019.1
20190325122935 77 67 7.0 10.4 0.00 0.00 0.00 31 1019.2
20190325121918 76 122 4.3 12.2 0.00 0.00 0.00 36 1019.3
20190325120902 76 114 7.8 12.2 0.00 0.00 0.00 35 1019.6
20190325115944 75 115 6.1 10.4 0.00 0.00 0.00 38 1019.7
20190325114928 75 78 6.1 10.4 0.00 0.00 0.00 37 1019.9
20190325113910 75 94 5.2 10.4 0.00 0.00 0.00 39 1020.0
20190325112857 74 80 4.3 8.7 0.00 0.00 0.00 38 1020.2
20190325111934 74 83 4.3 8.7 0.00 0.00 0.00 39 1020.3
20190325110843 73 56 3.5 8.7 0.00 0.00 0.00 42 1020.4
20190325105906 72 82 4.3 8.7 0.00 0.00 0.00 41 1020.6
20190325104848 72 92 4.3 10.4 0.00 0.00 0.00 42 1020.7
20190325103931 71 81 6.1 11.3 0.00 0.00 0.00 40 1020.8
20190325102917 71 106 4.3 7.8 0.00 0.00 0.00 42 1020.9
20190325101857 70 125 1.7 5.2 0.00 0.00 0.00 44 1021.0
20190325100838 69 192 1.7 3.5 0.00 0.00 0.00 47 1021.1
20190325095826 69 135 0.9 3.5 0.00 0.00 0.00 46 1021.2
20190325094909 67 100 0.9 3.5 0.00 0.00 0.00 48 1021.3
20190325093852 66 77 0.9 3.5 0.00 0.00 0.00 53 1021.3
20190325092838 65 15 2.6 7.8 0.00 0.00 0.00 52 1021.4
20190325091816 64 355 1.7 5.2 0.00 0.00 0.00 54 1021.4
20190325090807 62 5 1.7 2.6 0.00 0.00 0.00 60 1021.3
20190325085842 60 302 0.0 0.0 0.00 0.00 0.00 68 1021.3
20190325084826 58 302 0.0 0.0 0.00 0.00 0.00 81 1021.4
20190325083805 55 302 0.0 0.0 0.00 0.00 0.00 86 1021.3
20190325082746 53 300 0.0 1.7 0.00 0.00 0.00 90 1021.2
20190325081725 51 300 0.0 0.0 0.00 0.00 0.00 90 1021.2
20190325080803 50 300 0.0 1.7 0.00 0.00 0.00 92 1021.3
20190325075748 49 300 0.0 1.7 0.00 0.00 0.00 92 1021.2
20190325074729 48 300 0.0 0.0 0.00 0.00 0.00 94 1021.2
20190325073708 46 300 0.0 0.9 0.00 0.00 0.00 94 1021.1
20190325072749 44 300 0.0 0.0 0.00 0.00 0.00 95 1021.1
20190325071731 43 300 0.0 1.7 0.00 0.00 0.00 94 1021.1
20190325070710 42 300 0.9 1.7 0.00 0.00 0.00 94 1021.1
20190325065752 41 300 0.0 0.0 0.00 0.00 0.00 93 1021.1
20190325064737 41 300 0.0 0.0 0.00 0.00 0.00 93 1021.0
20190325063715 41 300 0.9 2.6 0.00 0.00 0.00 93 1020.8
20190325062655 41 302 0.9 2.6 0.00 0.00 0.00 93 1020.7
20190325061640 41 302 0.0 0.0 0.00 0.00 0.00 92 1020.8
20190325060717 42 302 0.0 0.0 0.00 0.00 0.00 93 1020.7
20190325055700 42 302 0.0 0.0 0.00 0.00 0.00 93 1020.5
20190325054638 42 302 0.0 0.0 0.00 0.00 0.00 93 1020.5
20190325053614 42 302 0.0 0.0 0.00 0.00 0.00 93 1020.5
20190325052649 42 302 0.0 0.0 0.00 0.00 0.00 92 1020.4
20190325051631 42 302 0.0 0.0 0.00 0.00 0.00 93 1020.4
20190325050607 42 302 0.0 0.0 0.00 0.00 0.00 93 1020.4
20190325045544 42 302 0.9 1.7 0.00 0.00 0.00 93 1020.5